DW1039 Weather Reports


Display with metric or nautical units.
time (UTC)temp
F
wind
direction
speed
MPH
gust
MPH
rain 1hr
in
rain 24hr
in
rain mn
in
humidity
%
barometer
mb
20260505225758 61 187 3.0 4.0 0.01 0.26 0.26 93 1006.7
20260505224758 61 241 4.0 6.0 0.01 0.26 0.26 93 1007.0
20260505223758 61 206 0.0 9.0 0.03 0.26 0.26 93 1007.1
20260505222758 61 209 4.0 5.0 0.03 0.26 0.26 93 1007.2
20260505221758 61 210 1.0 10.0 0.03 0.26 0.26 93 1007.2
20260505220758 61 207 3.0 8.0 0.03 0.25 0.25 93 1007.3
20260505215758 61 200 2.0 5.0 0.03 0.25 0.25 93 1007.4
20260505214758 61 217 3.0 9.0 0.03 0.25 0.25 93 1007.4
20260505213758 61 188 3.0 9.0 0.02 0.23 0.23 92 1007.3
20260505212757 61 208 2.0 10.0 0.02 0.23 0.23 92 1007.4
20260505211758 61 215 4.0 8.0 0.02 0.23 0.23 92 1007.4
20260505210757 61 211 5.0 9.0 0.02 0.22 0.22 92 1007.5
20260505205757 62 161 2.0 4.0 0.03 0.22 0.22 92 1007.4
20260505204757 62 189 0.0 0.0 0.05 0.22 0.22 92 1007.5
20260505203757 61 196 0.0 3.0 0.07 0.21 0.22 92 1007.5
20260505202757 61 196 1.0 5.0 0.08 0.21 0.21 91 1007.5
20260505201759 62 178 4.0 6.0 0.12 0.21 0.21 91 1007.6
20260505163755 67 215 7.0 8.0 0.00 0.09 0.09 70 1008.6
20260505162755 66 202 5.0 8.0 0.00 0.09 0.09 70 1008.6
20260505161755 66 234 4.0 10.0 0.00 0.09 0.09 70 1008.7
20260505160755 66 202 3.0 8.0 0.00 0.09 0.09 71 1008.6
20260505152755 68 186 4.0 6.0 0.00 0.09 0.09 74 1008.3
20260505151815 67 167 3.0 10.0 0.00 0.09 0.09 74 1008.5
20260505150755 66 191 4.0 9.0 0.00 0.09 0.09 77 1008.4
20260505110753 57 177 3.0 4.0 0.01 0.08 0.08 92 1007.4
20260505101754 57 236 0.0 3.0 0.08 0.08 0.08 90 1008.4